| time (UTC) | temp F | wind direction | speed knots | gust knots | rain 1hr in | rain 24hr in | rain mn in | humidity % | barometer mb |
| 20260904050504 | 77 | 155 | 1.7 | 2.6 | 0.00 | 0.00 | 0.00 | 89 | 1013.5 |
| 20260904044503 | 78 | 147 | 2.6 | 4.3 | 0.00 | 0.00 | 0.00 | 88 | 1013.7 |
| 20260904043006 | 78 | 140 | 3.5 | 4.3 | 0.00 | 0.00 | 0.00 | 88 | 1013.7 |
| 20260904042006 | 78 | 142 | 2.6 | 4.3 | 0.00 | 0.00 | 0.00 | 87 | 1013.7 |
| 20260904041006 | 79 | 149 | 2.6 | 4.3 | 0.00 | 0.00 | 0.00 | 87 | 1013.8 |
| 20260904040505 | 79 | 150 | 2.6 | 4.3 | 0.00 | 0.00 | 0.00 | 87 | 1013.8 |
| 20260904040006 | 79 | 141 | 1.7 | 2.6 | 0.00 | 0.00 | 0.00 | 86 | 1013.7 |
| 20260904035505 | 79 | 135 | 2.6 | 2.6 | 0.00 | 0.00 | 0.00 | 86 | 1013.7 |
| 20260904035006 | 79 | 145 | 1.7 | 2.6 | 0.00 | 0.00 | 0.00 | 86 | 1013.7 |
| 20260904034505 | 79 | 143 | 2.6 | 2.6 | 0.00 | 0.00 | 0.00 | 86 | 1013.8 |
| 20260904033005 | 80 | 150 | 1.7 | 4.3 | 0.00 | 0.00 | 0.00 | 84 | 1013.7 |
| 20260904032506 | 80 | 146 | 2.6 | 4.3 | 0.00 | 0.00 | 0.00 | 84 | 1013.7 |
| 20260904031506 | 81 | 148 | 2.6 | 5.2 | 0.00 | 0.00 | 0.00 | 83 | 1013.5 |
| 20260904031006 | 81 | 158 | 3.5 | 5.2 | 0.00 | 0.00 | 0.00 | 83 | 1013.4 |
| 20260904030506 | 81 | 148 | 3.5 | 5.2 | 0.00 | 0.00 | 0.00 | 83 | 1013.4 |
| 20260904025005 | 81 | 154 | 4.3 | 6.1 | 0.00 | 0.00 | 0.00 | 82 | 1013.2 |
| 20260904024505 | 82 | 143 | 4.3 | 7.0 | 0.00 | 0.00 | 0.00 | 82 | 1013.2 |
| 20260904024006 | 82 | 143 | 4.3 | 7.0 | 0.00 | 0.00 | 0.00 | 82 | 1013.2 |
| 20260904022505 | 81 | 142 | 5.2 | 7.8 | 0.00 | 0.00 | 0.00 | 83 | 1013.1 |
| 20260904022005 | 81 | 146 | 4.3 | 7.0 | 0.00 | 0.00 | 0.00 | 84 | 1013.0 |
| 20260904020006 | 80 | 123 | 2.6 | 2.6 | 0.00 | 0.00 | 0.00 | 86 | 1013.0 |
| 20260904015506 | 80 | 114 | 2.6 | 2.6 | 0.00 | 0.00 | 0.00 | 86 | 1013.1 |
| 20260904015006 | 80 | 112 | 1.7 | 2.6 | 0.00 | 0.00 | 0.00 | 84 | 1013.0 |
| 20260904014506 | 81 | 122 | 1.7 | 2.6 | 0.00 | 0.00 | 0.00 | 84 | 1013.0 |
| 20260904013506 | 81 | 110 | 1.7 | 2.6 | 0.00 | 0.00 | 0.00 | 83 | 1013.0 |
| 20260904012508 | 82 | 111 | 2.6 | 2.6 | 0.00 | 0.00 | 0.00 | 81 | 1012.8 |
| 20260904011005 | 83 | 123 | 2.6 | 2.6 | 0.00 | 0.00 | 0.00 | 80 | 1012.5 |
| 20260904010506 | 83 | 124 | 2.6 | 5.2 | 0.00 | 0.00 | 0.00 | 80 | 1012.4 |
| 20260904005506 | 83 | 129 | 2.6 | 2.6 | 0.00 | 0.00 | 0.00 | 81 | 1012.3 |
| 20260904005006 | 83 | 121 | 1.7 | 2.6 | 0.00 | 0.00 | 0.00 | 80 | 1012.4 |
| 20260904004506 | 83 | 106 | 1.7 | 1.7 | 0.00 | 0.00 | 0.00 | 78 | 1012.4 |
| 20260904002006 | 86 | 157 | 1.7 | 2.6 | 0.00 | 0.00 | 0.00 | 74 | 1012.2 |
| 20260904001505 | 87 | 158 | 1.7 | 2.6 | 0.00 | 0.00 | 0.00 | 73 | 1012.2 |
| 20260904000006 | 87 | 160 | 2.6 | 5.2 | 0.00 | 0.00 | 0.00 | 71 | 1012.0 |
| 20260903235505 | 87 | 167 | 3.5 | 6.1 | 0.00 | 0.00 | 0.00 | 71 | 1011.9 |
| 20260903235006 | 88 | 167 | 4.3 | 7.0 | 0.00 | 0.00 | 0.00 | 71 | 1011.9 |
| 20260903234506 | 88 | 177 | 5.2 | 7.8 | 0.00 | 0.00 | 0.00 | 70 | 1011.8 |
| 20260903234006 | 89 | 165 | 4.3 | 7.8 | 0.00 | 0.00 | 0.00 | 70 | 1011.8 |
| 20260903233505 | 89 | 178 | 4.3 | 7.0 | 0.00 | 0.00 | 0.00 | 70 | 1011.8 |
| 20260903233005 | 89 | 180 | 4.3 | 7.0 | 0.00 | 0.00 | 0.00 | 69 | 1011.7 |
| 20260903232505 | 89 | 182 | 5.2 | 8.7 | 0.00 | 0.00 | 0.00 | 68 | 1011.8 |
| 20260903231005 | 90 | 179 | 4.3 | 12.2 | 0.00 | 0.00 | 0.00 | 67 | 1011.7 |
| 20260903230505 | 90 | 187 | 5.2 | 10.4 | 0.00 | 0.00 | 0.00 | 66 | 1011.6 |
| 20260903230005 | 90 | 159 | 7.0 | 12.2 | 0.00 | 0.00 | 0.00 | 66 | 1011.5 |
| 20260903225005 | 90 | 181 | 7.8 | 12.2 | 0.00 | 0.00 | 0.00 | 65 | 1011.6 |
| 20260903224005 | 90 | 190 | 7.0 | 10.4 | 0.00 | 0.00 | 0.00 | 66 | 1011.6 |
| 20260903223005 | 90 | 164 | 6.1 | 10.4 | 0.00 | 0.00 | 0.00 | 66 | 1011.6 |
| 20260903222505 | 90 | 181 | 5.2 | 13.0 | 0.00 | 0.00 | 0.00 | 65 | 1011.5 |
| 20260903221006 | 91 | 168 | 8.7 | 13.9 | 0.00 | 0.00 | 0.00 | 63 | 1011.4 |
| 20260903220005 | 92 | 169 | 8.7 | 13.9 | 0.00 | 0.00 | 0.00 | 60 | 1011.9 |
| 20260903215505 | 93 | 178 | 7.8 | 13.0 | 0.00 | 0.00 | 0.00 | 60 | 1012.1 |
| 20260903214505 | 94 | 171 | 7.0 | 10.4 | 0.00 | 0.00 | 0.00 | 60 | 1012.1 |
| 20260903214005 | 94 | 184 | 8.7 | 13.0 | 0.00 | 0.00 | 0.00 | 58 | 1012.2 |
| 20260903213505 | 95 | 186 | 5.2 | 10.4 | 0.00 | 0.00 | 0.00 | 57 | 1012.4 |
| 20260903213005 | 95 | 183 | 4.3 | 7.0 | 0.00 | 0.00 | 0.00 | 57 | 1012.5 |
| 20260903212006 | 95 | 205 | 5.2 | 11.3 | 0.00 | 0.00 | 0.00 | 55 | 1012.8 |
| 20260903211005 | 95 | 201 | 4.3 | 6.1 | 0.00 | 0.00 | 0.00 | 56 | 1012.9 |
| 20260903210505 | 94 | 204 | 5.2 | 7.8 | 0.00 | 0.00 | 0.00 | 55 | 1013.0 |
| 20260903204505 | 96 | 202 | 4.3 | 8.7 | 0.00 | 0.00 | 0.00 | 56 | 1013.5 |
| 20260903204005 | 96 | 233 | 4.3 | 7.8 | 0.00 | 0.00 | 0.00 | 56 | 1013.3 |
| 20260903203005 | 93 | 187 | 1.7 | 5.2 | 0.00 | 0.00 | 0.00 | 59 | 1013.4 |
| 20260903202005 | 93 | 221 | 5.2 | 7.8 | 0.00 | 0.00 | 0.00 | 57 | 1013.4 |
| 20260903201505 | 95 | 205 | 4.3 | 7.8 | 0.00 | 0.00 | 0.00 | 56 | 1013.4 |
| 20260903201005 | 95 | 184 | 5.2 | 10.4 | 0.00 | 0.00 | 0.00 | 55 | 1013.3 |
| 20260903200505 | 96 | 173 | 1.7 | 4.3 | 0.00 | 0.00 | 0.00 | 57 | 1013.3 |
| 20260903200005 | 95 | 211 | 2.6 | 8.7 | 0.00 | 0.00 | 0.00 | 56 | 1013.3 |
| 20260903195505 | 95 | 218 | 4.3 | 8.7 | 0.00 | 0.00 | 0.00 | 55 | 1013.3 |
| 20260903194005 | 95 | 179 | 4.3 | 7.0 | 0.00 | 0.00 | 0.00 | 56 | 1013.7 |
| 20260903193005 | 95 | 217 | 5.2 | 8.7 | 0.00 | 0.00 | 0.00 | 54 | 1013.5 |
| 20260903192005 | 94 | 180 | 7.0 | 11.3 | 0.00 | 0.00 | 0.00 | 55 | 1013.7 |
| 20260903191504 | 94 | 185 | 4.3 | 10.4 | 0.00 | 0.00 | 0.00 | 56 | 1013.9 |
| 20260903190504 | 94 | 171 | 4.3 | 7.0 | 0.00 | 0.00 | 0.00 | 57 | 1014.0 |
| 20260903190005 | 94 | 192 | 6.1 | 8.7 | 0.00 | 0.00 | 0.00 | 57 | 1014.0 |
| 20260903185005 | 94 | 181 | 5.2 | 7.0 | 0.00 | 0.00 | 0.00 | 59 | 1013.9 |
| 20260903184505 | 94 | 170 | 6.1 | 8.7 | 0.00 | 0.00 | 0.00 | 58 | 1013.8 |
| 20260903184005 | 94 | 141 | 4.3 | 7.0 | 0.00 | 0.00 | 0.00 | 59 | 1013.9 |
| 20260903183006 | 94 | 191 | 3.5 | 6.1 | 0.00 | 0.00 | 0.00 | 60 | 1014.0 |
| 20260903181505 | 90 | 214 | 0.9 | 1.7 | 0.00 | 0.00 | 0.00 | 62 | 1014.2 |
| 20260903180004 | 92 | 173 | 2.6 | 5.2 | 0.00 | 0.00 | 0.00 | 64 | 1014.3 |
| 20260903174505 | 88 | 158 | 2.6 | 5.2 | 0.00 | 0.00 | 0.00 | 68 | 1014.6 |
| 20260903172504 | 89 | 161 | 2.6 | 4.3 | 0.00 | 0.00 | 0.00 | 64 | 1014.7 |
| 20260903172005 | 89 | 123 | 2.6 | 5.2 | 0.00 | 0.00 | 0.00 | 64 | 1014.6 |
| 20260903170505 | 87 | 139 | 2.6 | 5.2 | 0.00 | 0.00 | 0.00 | 67 | 1014.6 |
| 20260903165004 | 88 | 154 | 4.3 | 6.1 | 0.00 | 0.00 | 0.00 | 67 | 1014.8 |
| 20260903164004 | 89 | 174 | 2.6 | 4.3 | 0.00 | 0.00 | 0.00 | 65 | 1014.8 |
| 20260903163005 | 89 | 192 | 4.3 | 7.0 | 0.00 | 0.00 | 0.00 | 68 | 1014.9 |
| 20260903162504 | 89 | 182 | 1.7 | 4.3 | 0.00 | 0.00 | 0.00 | 66 | 1014.9 |
| 20260903155505 | 86 | 122 | 2.6 | 5.2 | 0.00 | 0.00 | 0.00 | 71 | 1015.0 |
| 20260903155004 | 85 | 109 | 2.6 | 6.1 | 0.00 | 0.00 | 0.00 | 68 | 1015.1 |
| 20260903154005 | 87 | 74 | 2.6 | 5.2 | 0.00 | 0.00 | 0.00 | 66 | 1014.9 |
| 20260903153505 | 87 | 76 | 4.3 | 6.1 | 0.00 | 0.00 | 0.00 | 66 | 1015.0 |
| 20260903152504 | 86 | 82 | 2.6 | 2.6 | 0.00 | 0.00 | 0.00 | 68 | 1014.9 |
| 20260903152004 | 86 | 2 | 2.6 | 5.2 | 0.00 | 0.00 | 0.00 | 65 | 1014.9 |
| 20260903151504 | 86 | 19 | 2.6 | 4.3 | 0.00 | 0.00 | 0.00 | 69 | 1014.9 |
| 20260903150005 | 86 | 58 | 1.7 | 4.3 | 0.00 | 0.00 | 0.00 | 72 | 1014.9 |
| 20260903143505 | 84 | 329 | 2.6 | 4.3 | 0.00 | 0.00 | 0.00 | 74 | 1014.8 |
| 20260903142004 | 83 | 3 | 1.7 | 2.6 | 0.00 | 0.00 | 0.00 | 76 | 1014.9 |
| 20260903140004 | 80 | 355 | 0.0 | 1.7 | 0.00 | 0.00 | 0.00 | 81 | 1014.9 |
| 20260903135505 | 79 | 355 | 0.0 | 1.7 | 0.00 | 0.00 | 0.00 | 82 | 1015.0 |
| 20260903135005 | 79 | 355 | 0.0 | 1.7 | 0.00 | 0.00 | 0.00 | 82 | 1015.1 |
| 20260903134504 | 79 | 19 | 0.9 | 1.7 | 0.00 | 0.00 | 0.00 | 83 | 1015.1 |
| 20260903132504 | 76 | 311 | 4.3 | 8.7 | 0.00 | 0.00 | 0.00 | 88 | 1015.6 |
| 20260903132005 | 76 | 316 | 4.3 | 10.4 | 0.00 | 0.00 | 0.00 | 87 | 1015.6 |
| 20260903131005 | 76 | 279 | 4.3 | 17.4 | 0.00 | 0.00 | 0.00 | 87 | 1015.1 |
| 20260903130505 | 76 | 333 | 11.3 | 17.4 | 0.00 | 0.00 | 0.00 | 88 | 1015.6 |
| 20260903125506 | 75 | 169 | 0.9 | 1.7 | 0.00 | 0.00 | 0.00 | 89 | 1014.6 |
| 20260903124005 | 74 | 140 | 0.9 | 1.7 | 0.00 | 0.00 | 0.00 | 91 | 1014.5 |
| 20260903123004 | 73 | 124 | 1.7 | 1.7 | 0.00 | 0.00 | 0.00 | 92 | 1014.4 |
| 20260903121004 | 72 | 111 | 1.7 | 1.7 | 0.00 | 0.00 | 0.00 | 93 | 1014.4 |
| 20260903120504 | 72 | 110 | 1.7 | 1.7 | 0.00 | 0.00 | 0.00 | 94 | 1014.3 |
| 20260903120004 | 72 | 111 | 1.7 | 1.7 | 0.00 | 0.00 | 0.00 | 94 | 1014.3 |
| 20260903115504 | 72 | 111 | 0.9 | 1.7 | 0.00 | 0.00 | 0.00 | 94 | 1014.2 |
| 20260903114004 | 71 | 117 | 2.6 | 2.6 | 0.00 | 0.00 | 0.00 | 93 | 1014.0 |
| 20260903113005 | 71 | 122 | 1.7 | 2.6 | 0.00 | 0.00 | 0.00 | 93 | 1013.9 |
| 20260903112504 | 72 | 122 | 1.7 | 1.7 | 0.00 | 0.00 | 0.00 | 93 | 1013.8 |
| 20260903112004 | 71 | 124 | 1.7 | 2.6 | 0.00 | 0.00 | 0.00 | 93 | 1013.8 |
| 20260903111504 | 71 | 128 | 1.7 | 1.7 | 0.00 | 0.00 | 0.00 | 93 | 1013.8 |
| 20260903111004 | 72 | 128 | 0.9 | 1.7 | 0.00 | 0.00 | 0.00 | 93 | 1013.7 |
| 20260903105504 | 72 | 128 | 1.7 | 1.7 | 0.00 | 0.00 | 0.00 | 93 | 1013.8 |
| 20260903104504 | 72 | 128 | 1.7 | 1.7 | 0.00 | 0.00 | 0.00 | 92 | 1013.7 |
| 20260903104005 | 72 | 128 | 1.7 | 2.6 | 0.00 | 0.00 | 0.00 | 93 | 1013.7 |
| 20260903102504 | 72 | 128 | 1.7 | 1.7 | 0.00 | 0.00 | 0.00 | 93 | 1013.7 |
| 20260903101504 | 72 | 121 | 1.7 | 1.7 | 0.00 | 0.00 | 0.00 | 92 | 1013.9 |
| 20260903101004 | 73 | 132 | 1.7 | 2.6 | 0.00 | 0.00 | 0.00 | 92 | 1013.9 |
| 20260903100004 | 73 | 140 | 1.7 | 2.6 | 0.00 | 0.00 | 0.00 | 93 | 1013.9 |
| 20260903095504 | 72 | 138 | 1.7 | 2.6 | 0.00 | 0.00 | 0.00 | 93 | 1013.9 |
| 20260903092004 | 73 | 121 | 1.7 | 1.7 | 0.00 | 0.00 | 0.00 | 92 | 1013.9 |
| 20260903091004 | 73 | 132 | 1.7 | 2.6 | 0.00 | 0.00 | 0.00 | 92 | 1014.0 |
| 20260903085504 | 73 | 138 | 1.7 | 2.6 | 0.00 | 0.00 | 0.00 | 92 | 1014.0 |
| 20260903085005 | 73 | 134 | 1.7 | 2.6 | 0.00 | 0.00 | 0.00 | 93 | 1014.1 |
| 20260903084504 | 73 | 134 | 1.7 | 2.6 | 0.00 | 0.00 | 0.00 | 93 | 1014.0 |
| 20260903084004 | 73 | 125 | 1.7 | 2.6 | 0.00 | 0.00 | 0.00 | 93 | 1014.0 |
| 20260903083505 | 73 | 121 | 1.7 | 2.6 | 0.00 | 0.00 | 0.00 | 93 | 1013.8 |
| 20260903081504 | 73 | 114 | 1.7 | 2.6 | 0.00 | 0.00 | 0.00 | 93 | 1013.8 |
| 20260903081004 | 73 | 123 | 1.7 | 1.7 | 0.00 | 0.00 | 0.00 | 92 | 1013.8 |
| 20260903080504 | 74 | 123 | 0.9 | 1.7 | 0.00 | 0.00 | 0.00 | 92 | 1013.8 |
| 20260903074504 | 74 | 108 | 2.6 | 2.6 | 0.00 | 0.00 | 0.00 | 92 | 1013.8 |
| 20260903074004 | 74 | 114 | 2.6 | 2.6 | 0.00 | 0.00 | 0.00 | 92 | 1013.6 |
| 20260903072504 | 74 | 120 | 1.7 | 2.6 | 0.00 | 0.00 | 0.00 | 92 | 1013.7 |
| 20260903072004 | 74 | 127 | 2.6 | 2.6 | 0.00 | 0.00 | 0.00 | 92 | 1013.7 |
| 20260903070504 | 74 | 132 | 1.7 | 2.6 | 0.00 | 0.00 | 0.00 | 92 | 1013.9 |
| 20260903065004 | 74 | 129 | 1.7 | 2.6 | 0.00 | 0.00 | 0.00 | 92 | 1013.9 |
| 20260903064004 | 74 | 121 | 0.9 | 1.7 | 0.00 | 0.00 | 0.00 | 93 | 1013.9 |
| 20260903063004 | 74 | 121 | 1.7 | 1.7 | 0.00 | 0.00 | 0.00 | 92 | 1014.0 |
| 20260903062504 | 75 | 121 | 1.7 | 2.6 | 0.00 | 0.00 | 0.00 | 92 | 1014.0 |
| 20260903061504 | 75 | 127 | 1.7 | 2.6 | 0.00 | 0.00 | 0.00 | 92 | 1014.1 |
| 20260903060503 | 75 | 128 | 1.7 | 1.7 | 0.00 | 0.00 | 0.00 | 90 | 1014.1 |
| 20260903055004 | 76 | 128 | 2.6 | 2.6 | 0.00 | 0.00 | 0.00 | 90 | 1014.0 |
| 20260903053504 | 77 | 118 | 1.7 | 2.6 | 0.00 | 0.00 | 0.00 | 89 | 1014.0 |
| 20260903051503 | 77 | 128 | 2.6 | 2.6 | 0.00 | 0.00 | 0.00 | 88 | 1013.9 |